World > North America > United States > New York

Colden, New York Regional Weather

Lat: 42.64N, Lon: 78.69W
Wx Zone: NYZ085Web Search

Helpful Tip: Type the letters wx in the search engine next time you need to find us.

Feedback
Colden Weather Map
UTC Time: 12/5/2020, 12:23
Your Time:

Colden, NY Regional Weather

Expires:202012051300;;872109
ASUS41 KALY 051210
RWRALY

NEW YORK STATE HOURLY WEATHER ROUNDUP
NATIONAL WEATHER SERVICE ALBANY NY
700 AM EST SAT DEC 05 2020

NOTE: "FAIR" INDICATES FEW OR NO CLOUDS BELOW 12,000 FEET WITH NO
SIGNIFICANT WEATHER AND/OR NO OBSTRUCTIONS TO VISIBILITY.


NYZ001>004-010>016-019>021-085-051300-
WEST

  
CITY           SKY/WX    TMP DP  RH WIND       PRES   REMARKS
NIAGARA FALLS  CLOUDY    35  32  88 NW9       29.93R WCI  28          
BUFFALO        CLOUDY    36  33  89 NW7       29.92R WCI  30          
DUNKIRK        CLOUDY    38  33  82 N14       29.94R WCI  30          
JAMESTOWN      CLOUDY    32  32 100 NW7       29.89R WCI  26          
WELLSVILLE     CLOUDY    31  30  96 NW9       29.85R WCI  23          
ROCHESTER      CLOUDY    36  35  96 NW5       29.90S FOG     WCI  32  
PENN YAN       CLOUDY    37  32  82 NW7       29.87R WCI  32          
$$

             KEY
       WCI = WIND CHILL INDEX
       VSB = VISIBILITY
       HX  = HEAT INDEX
$$
  

SKY/WX - Weather  TMP - Temperature  DP - Dew Point  RH - Relative Humidity
WIND - Wind Direction/Speed PRES - Barometric Pressure VSB - Visibility
WCI - Wind Chill Index E13G22 Wind - East Wind 13 mph/Gusts of 22 mph